Location: Kitt Peak
(31.9639°N, 111.5992°W)
Time: 17:02:05
(UTC-07:00)

DIWATA 2B (PO-101) - Pass Details

Date: 26 September 2024
Orbit: 572 x 585 km, 98.1° (Epoch: 10 October)

Event Time Altitude Azimuth Distance (km) Brightness Sun altitude
Rises 04:59:46 0° 189° (S) 2,767 ? -17.3°
Enters shadow 05:00:34 - 192° (SSW) 2,453 ? -17.1°
Exits shadow 05:06:47 25° 291° (WNW) 1,169 ? -15.8°
Drops below altitude 10° 05:09:13 10° 323° (NW) 1,878 ? -15.3°
Sets 05:11:36 0° 335° (NNW) 2,779 ? -14.8°
